Simultaneous Nadir Overpasses (SNOs) Predictions

Prediction of SNOs between AQUA and NOAA-19 Satellite Orbit:

Table of predicted SNOs for the next 14.0 days since TLE Epoch: 10/16/2021
Index Date (AQUA) Time (AQUA) Lat,Lon (AQUA) SZA (AQUA ) Date (NOAA-19) Time (NOAA-19) Lat,Lon (NOAA-19) SZA (NOAA-19 ) Distance(km) Time Diff (sec)
1 10/17/2021 15:44:46 -78.38, 103.39 91.71 10/17/2021 15:44:34 -78.38, 103.27 91.70 2.69 12
2 10/19/2021 21:18:29 78.36,-159.92 89.06 10/19/2021 21:17:44 78.36,-160.07 89.09 3.61 45
3 10/19/2021 22:07:56 -78.40, 7.53 90.88 10/19/2021 22:08:40 -78.39, 7.37 90.89 3.54 44
4 10/22/2021 03:41:39 78.38, 104.18 89.89 10/22/2021 03:41:49 78.39, 104.14 89.90 1.20 10
5 10/24/2021 09:15:21 -78.36,-159.16 89.36 10/24/2021 09:14:53 -78.35,-159.24 89.36 2.11 28
6 10/24/2021 10:04:49 78.41, 8.25 90.71 10/24/2021 10:05:54 78.41, 8.34 90.69 2.00 65
7 10/26/2021 14:49:04 78.36, -62.57 91.40 10/26/2021 14:48:01 78.34, -62.50 91.40 2.46 63
8 10/26/2021 15:38:30 -78.36, 105.09 88.60 10/26/2021 15:38:58 -78.39, 105.06 88.57 4.05 28
9 10/28/2021 21:12:13 78.36,-158.36 92.16 10/28/2021 21:12:06 78.36,-158.34 92.16 0.45 7



Historial Predications of SNOs between AQUA and NOAA-19
